Regional Weather Roundup
Issued by NWS

Home | Current Version | Previous Version | Graphics & Text | Print | Product List | Glossary On
Versions: 1 2 3 4 5 6 7 8 9 10 11 12 13 14 15 16 17 18 19 20 21 22 23 24 25 26 27 28 29 30 31 32 33 34 35 36 37 38 39 40 41 42 43 44 45 46 47 48 49 50
000
ASUS44 KMEG 282200
RWRTN
TENNESSEE HOURLY STATE WEATHER ROUNDUP
NATIONAL WEATHER SERVICE MEMPHIS TN
500 PM CDT THU MAY 28 2015

TNZ002-004-019-021-049-052-054-088>092-282300-
WEST TENNESSEE

CITY           SKY/WX    TMP DP  RH WIND       PRES   REMARKS
MEMPHIS INTL   PTSUNNY   83  66  56 SE5       30.09F
NWS MEMPHIS      N/A     83 N/A N/A MISG        N/A
JACKSON        MOSUNNY   80  66  62 VRB6      30.11F
DYERSBURG      MOSUNNY   81  57  44 S7        30.10F
PARIS          SUNNY     81  64  57 S7        30.11S
LEXINGTON      SUNNY     81  68  65 SW6       30.10F
$$

TNZ008-025-027-028-033-062-065-066-282300-
NORTH MIDDLE TENNESSEE

CITY           SKY/WX    TMP DP  RH WIND       PRES   REMARKS
NASHVILLE      PTSUNNY   84  65  52 S6        30.12F
CLARKSVILLE    MOSUNNY   82  65  56 SE7       30.10F
COOKEVILLE     MOSUNNY   82  64  54 VRB5      30.15S
CROSSVILLE     PTSUNNY   75  63  66 CALM      30.20F
$$

TNZ061-075-076-078-094-096-097-282300-
SOUTH MIDDLE TENNESSEE

CITY           SKY/WX    TMP DP  RH WIND       PRES   REMARKS
FAYETTEVILLE   PTSUNNY  N/A N/A N/A MISG      30.13S
TULLAHOMA      MOSUNNY   79  63  57 CALM      30.15S
WINCHESTER     SUNNY     81  66  61 SE7       30.14S
MCMINNVILLE    SUNNY     81  66  61 CALM      30.14F
COLUMBIA       MOSUNNY   82  66  57 S5        30.10F
SHELBYVILLE    MOSUNNY   82  66  57 SE3       30.13S
$$

TNZ017-018-042-046-047-282300-
NORTHEAST TENNESSEE

CITY           SKY/WX    TMP DP  RH WIND       PRES   REMARKS
TRI CITIES     PTSUNNY   73  62  68 S8        30.22R THUNDER
$$

TNZ012-013-036-069-073-074-282300-
CENTRAL EAST TENNESSEE

CITY           SKY/WX    TMP DP  RH WIND       PRES   REMARKS
KNOXVILLE      CLOUDY    81  64  56 CALM      30.15F
OAK RIDGE      PTSUNNY   82  62  50 CALM      30.17F
GATLINBURG       N/A     79  66  65 S3        30.16S
$$

TNZ083-085-099-282300-
SOUTHEAST TENNESSEE

CITY           SKY/WX    TMP DP  RH WIND       PRES   REMARKS
CHATTANOOGA    PTSUNNY   83  66  56 SE6       30.14F
$$

SKY/WX REPORTED AS FAIR MEANS FEW OR NO CLOUDS BELOW
12 THOUSAND FEET.



USA.gov is the U.S. government's official web portal to all federal, state and local government web resources and services.